N1825 KDCA-KCLT

Flight info

Callsign N1825
Flight time 0h 58m
Altitude 22000
Route SCRAM6 GLANC DCT AIROW CHSLY6
Aircraft GLF6/M-SBDE2E3FGHIJ4J5M1RWXY/LB1D1

Departure

Time 2026-04-25 05:47
Airport Ronald Reagan Washington National Airport (KDCA)

Arrival

Time 2026-04-25 06:45
Airport Charlotte Douglas International Airport (KCLT)
Time Latitude Longitude Altitude Speed Heading
2026-04-25 05:15 38.84708 -77.04460 18 ft 0 kts 323°
2026-04-25 05:37 38.84709 -77.04460 18 ft 0 kts 319°
2026-04-25 05:38 38.84709 -77.04461 18 ft 0 kts 313°
2026-04-25 05:38 38.84706 -77.04467 20 ft 0 kts 243°
2026-04-25 05:38 38.84705 -77.04468 20 ft 1 kts 238°
2026-04-25 05:38 38.84704 -77.04468 20 ft 0 kts 229°
2026-04-25 05:39 38.84692 -77.04461 18 ft 3 kts 144°
2026-04-25 05:39 38.84673 -77.04442 18 ft 4 kts 141°
2026-04-25 05:39 38.84632 -77.04401 18 ft 8 kts 142°
2026-04-25 05:39 38.84587 -77.04349 21 ft 9 kts 130°
2026-04-25 05:40 38.84569 -77.04282 19 ft 9 kts 90°
2026-04-25 05:40 38.84576 -77.04210 23 ft 7 kts 81°
2026-04-25 05:40 38.84585 -77.04144 21 ft 8 kts 79°
2026-04-25 05:40 38.84602 -77.04076 23 ft 9 kts 58°
2026-04-25 05:41 38.84657 -77.04022 20 ft 11 kts 26°
2026-04-25 05:41 38.84731 -77.03980 17 ft 12 kts 24°
2026-04-25 05:41 38.84817 -77.03944 16 ft 14 kts
2026-04-25 05:41 38.84916 -77.03954 16 ft 15 kts 354°
2026-04-25 05:42 38.85008 -77.03962 15 ft 11 kts 359°
2026-04-25 05:42 38.85086 -77.03970 18 ft 12 kts 354°
2026-04-25 05:42 38.85178 -77.03982 15 ft 13 kts 355°
2026-04-25 05:42 38.85264 -77.03992 16 ft 12 kts 355°
2026-04-25 05:43 38.85341 -77.03999 17 ft 10 kts 356°
2026-04-25 05:43 38.85409 -77.04004 18 ft 10 kts 356°
2026-04-25 05:43 38.85473 -77.04010 19 ft 9 kts 356°
2026-04-25 05:43 38.85531 -77.04025 20 ft 8 kts 345°
2026-04-25 05:44 38.85592 -77.04039 22 ft 10 kts 354°
2026-04-25 05:44 38.85660 -77.04046 23 ft 9 kts 355°
2026-04-25 05:44 38.85726 -77.04053 23 ft 10 kts 355°
2026-04-25 05:44 38.85797 -77.04059 22 ft 11 kts 356°
2026-04-25 05:45 38.85886 -77.04065 20 ft 13 kts 357°
2026-04-25 05:45 38.85952 -77.04043 20 ft 11 kts 16°
2026-04-25 05:45 38.86033 -77.03994 20 ft 15 kts 38°
2026-04-25 05:45 38.86084 -77.03890 17 ft 10 kts 98°
2026-04-25 05:46 38.86027 -77.03863 18 ft 8 kts 177°
2026-04-25 05:46 38.85947 -77.03854 20 ft 24 kts 175°
2026-04-25 05:46 38.85576 -77.03817 20 ft 85 kts 176°
2026-04-25 05:46 38.84776 -77.03739 20 ft 143 kts 175°
2026-04-25 05:47 38.84034 -77.03666 53 ft 171 kts 176°
2026-04-25 05:47 38.82303 -77.03640 628 ft 211 kts 182°
2026-04-25 05:47 38.80751 -77.03610 1284 ft 211 kts 176°
2026-04-25 05:47 38.79806 -77.03540 1712 ft 198 kts 177°
2026-04-25 05:48 38.78413 -77.03513 1652 ft 206 kts 180°
2026-04-25 05:48 38.77007 -77.03896 1590 ft 211 kts 205°
2026-04-25 05:48 38.75794 -77.04968 1591 ft 214 kts 225°
2026-04-25 05:48 38.74983 -77.06563 1612 ft 216 kts 248°
2026-04-25 05:49 38.74689 -77.08435 1666 ft 215 kts 266°
2026-04-25 05:49 38.74597 -77.10348 1730 ft 216 kts 265°
2026-04-25 05:49 38.74464 -77.12281 1799 ft 217 kts 264°
2026-04-25 05:49 38.74001 -77.14113 1865 ft 217 kts 241°
2026-04-25 05:50 38.73312 -77.15826 1980 ft 217 kts 246°
2026-04-25 05:50 38.72722 -77.17605 2073 ft 217 kts 246°
2026-04-25 05:50 38.72074 -77.19352 2174 ft 217 kts 244°
2026-04-25 05:50 38.71416 -77.21098 2275 ft 218 kts 244°
2026-04-25 05:51 38.70732 -77.22798 2345 ft 219 kts 236°
2026-04-25 05:51 38.69817 -77.24350 2446 ft 218 kts 233°
2026-04-25 05:51 38.68939 -77.25933 2533 ft 219 kts 235°
2026-04-25 05:51 38.68059 -77.27526 2630 ft 219 kts 234°
2026-04-25 05:52 38.67178 -77.29094 2722 ft 219 kts 234°
2026-04-25 05:52 38.66289 -77.30683 2815 ft 220 kts 234°
2026-04-25 05:52 38.65397 -77.32270 2903 ft 220 kts 234°
2026-04-25 05:52 38.64507 -77.33861 2992 ft 220 kts 234°
2026-04-25 05:53 38.63612 -77.35453 3085 ft 220 kts 234°
2026-04-25 05:53 38.62719 -77.37046 3170 ft 221 kts 234°
2026-04-25 05:53 38.61821 -77.38641 3254 ft 221 kts 234°
2026-04-25 05:53 38.60924 -77.40242 3339 ft 221 kts 234°
2026-04-25 05:54 38.60024 -77.41839 3421 ft 222 kts 234°
2026-04-25 05:54 38.59126 -77.43440 3508 ft 222 kts 234°
2026-04-25 05:54 38.57321 -77.46644 3665 ft 222 kts 234°
2026-04-25 05:55 38.56417 -77.48248 3742 ft 223 kts 234°
2026-04-25 05:55 38.55512 -77.49854 3837 ft 220 kts 234°
2026-04-25 05:55 38.54574 -77.51522 4212 ft 251 kts 234°
2026-04-25 05:55 38.53556 -77.53324 4597 ft 243 kts 234°
2026-04-25 05:56 38.52540 -77.55125 4943 ft 256 kts 234°
2026-04-25 05:56 38.51522 -77.56925 5269 ft 248 kts 234°
2026-04-25 05:56 38.50498 -77.58741 5608 ft 249 kts 234°
2026-04-25 05:56 38.49483 -77.60532 6158 ft 256 kts 234°
2026-04-25 05:57 38.48457 -77.62349 6707 ft 252 kts 234°
2026-04-25 05:57 38.47414 -77.64189 7265 ft 254 kts 234°
2026-04-25 05:57 38.46373 -77.66030 7812 ft 260 kts 234°
2026-04-25 05:57 38.45303 -77.67876 8356 ft 257 kts 231°
2026-04-25 05:58 38.44117 -77.69591 8903 ft 264 kts 228°
2026-04-25 05:58 38.42904 -77.71361 9454 ft 264 kts 229°
2026-04-25 05:58 38.41708 -77.73128 10006 ft 266 kts 229°
2026-04-25 05:58 38.40494 -77.74908 10548 ft 270 kts 229°
2026-04-25 05:59 38.39246 -77.76738 11113 ft 282 kts 229°
2026-04-25 05:59 38.37898 -77.78708 11715 ft 308 kts 229°
2026-04-25 05:59 38.36455 -77.80878 12330 ft 334 kts 231°
2026-04-25 05:59 38.34922 -77.83271 12952 ft 362 kts 230°
2026-04-25 06:00 38.33308 -77.85712 13536 ft 356 kts 230°
2026-04-25 06:00 38.31692 -77.88180 14098 ft 367 kts 230°
2026-04-25 06:00 38.30083 -77.90667 14647 ft 365 kts 230°
2026-04-25 06:00 38.28441 -77.93186 15201 ft 371 kts 230°
2026-04-25 06:01 38.26798 -77.95700 15746 ft 372 kts 230°
2026-04-25 06:01 38.25129 -77.98257 16299 ft 377 kts 230°
2026-04-25 06:01 38.23457 -78.00813 16846 ft 377 kts 230°
2026-04-25 06:01 38.21759 -78.03413 17399 ft 383 kts 230°
2026-04-25 06:02 38.20059 -78.06009 17948 ft 383 kts 230°
2026-04-25 06:02 38.18336 -78.08637 18498 ft 390 kts 230°
2026-04-25 06:02 38.16603 -78.11283 19042 ft 389 kts 230°
2026-04-25 06:02 38.14853 -78.13947 19592 ft 396 kts 230°
2026-04-25 06:03 38.13087 -78.16640 20147 ft 396 kts 230°
2026-04-25 06:03 38.11341 -78.19294 20683 ft 402 kts 230°
2026-04-25 06:03 38.09510 -78.22078 21247 ft 404 kts 230°
2026-04-25 06:03 38.07708 -78.24817 21793 ft 407 kts 230°
2026-04-25 06:04 38.05865 -78.27630 21997 ft 419 kts 231°
2026-04-25 06:04 38.04062 -78.30480 21994 ft 411 kts 231°
2026-04-25 06:04 38.02263 -78.33326 21995 ft 416 kts 231°
2026-04-25 06:04 38.00440 -78.36145 21991 ft 412 kts 230°
2026-04-25 06:05 37.98612 -78.38972 21990 ft 415 kts 231°
2026-04-25 06:05 37.96805 -78.41795 21991 ft 413 kts 231°
2026-04-25 06:05 37.94982 -78.44632 21990 ft 415 kts 231°
2026-04-25 06:05 37.93165 -78.47448 21989 ft 413 kts 231°
2026-04-25 06:06 37.91365 -78.50239 21990 ft 415 kts 231°
2026-04-25 06:06 37.89548 -78.53056 21991 ft 413 kts 231°
2026-04-25 06:06 37.87723 -78.55881 21993 ft 414 kts 231°
2026-04-25 06:06 37.85903 -78.58699 21996 ft 414 kts 231°
2026-04-25 06:07 37.84073 -78.61524 21991 ft 414 kts 231°
2026-04-25 06:07 37.82253 -78.64337 21993 ft 414 kts 231°
2026-04-25 06:07 37.80423 -78.67160 21991 ft 413 kts 231°
2026-04-25 06:07 37.78604 -78.69965 21990 ft 414 kts 231°
2026-04-25 06:08 37.76773 -78.72788 21991 ft 413 kts 231°
2026-04-25 06:08 37.74948 -78.75593 21991 ft 415 kts 230°
2026-04-25 06:08 37.73111 -78.78411 21990 ft 413 kts 230°
2026-04-25 06:08 37.71033 -78.80908 21993 ft 415 kts 218°
2026-04-25 06:09 37.68709 -78.83073 22005 ft 413 kts 216°
2026-04-25 06:09 37.66400 -78.85247 22008 ft 415 kts 217°
2026-04-25 06:09 37.64089 -78.87422 22006 ft 413 kts 216°
2026-04-25 06:09 37.61773 -78.89573 22006 ft 415 kts 216°
2026-04-25 06:10 37.59456 -78.91731 22007 ft 413 kts 217°
2026-04-25 06:10 37.57141 -78.93895 22007 ft 415 kts 217°
2026-04-25 06:10 37.54822 -78.96057 22007 ft 413 kts 216°
2026-04-25 06:10 37.52505 -78.98215 22006 ft 416 kts 216°
2026-04-25 06:11 37.50183 -79.00377 22008 ft 413 kts 216°
2026-04-25 06:11 37.47867 -79.02528 22006 ft 415 kts 216°
2026-04-25 06:11 37.45544 -79.04689 22007 ft 413 kts 216°
2026-04-25 06:11 37.43215 -79.06811 22003 ft 415 kts 214°
2026-04-25 06:12 37.40835 -79.08863 22006 ft 413 kts 214°
2026-04-25 06:12 37.38479 -79.10942 22004 ft 415 kts 215°
2026-04-25 06:12 37.36115 -79.13027 22006 ft 414 kts 215°
2026-04-25 06:12 37.33749 -79.15085 22005 ft 415 kts 214°
2026-04-25 06:13 37.31373 -79.17152 22007 ft 414 kts 215°
2026-04-25 06:13 37.29010 -79.19218 22004 ft 415 kts 215°
2026-04-25 06:13 37.26637 -79.21287 22007 ft 414 kts 214°
2026-04-25 06:14 37.21949 -79.25494 22006 ft 414 kts 216°
2026-04-25 06:14 37.19605 -79.27584 22004 ft 414 kts 215°
2026-04-25 06:14 37.17252 -79.29679 22006 ft 414 kts 216°
2026-04-25 06:14 37.14922 -79.31792 22004 ft 415 kts 216°
2026-04-25 06:15 37.12579 -79.33914 22007 ft 414 kts 216°
2026-04-25 06:15 37.10241 -79.36010 22010 ft 415 kts 216°
2026-04-25 06:15 37.07891 -79.38119 22010 ft 414 kts 216°
2026-04-25 06:15 37.05558 -79.40220 22005 ft 415 kts 216°
2026-04-25 06:16 37.03211 -79.42327 22007 ft 413 kts 216°
2026-04-25 06:16 37.00854 -79.44395 22003 ft 415 kts 213°
2026-04-25 06:16 36.98451 -79.46399 22005 ft 413 kts 214°
2026-04-25 06:16 36.96104 -79.48404 22004 ft 416 kts 214°
2026-04-25 06:17 36.93721 -79.50435 22005 ft 413 kts 214°
2026-04-25 06:17 36.91297 -79.52470 22004 ft 416 kts 214°
2026-04-25 06:17 36.88937 -79.54454 22006 ft 413 kts 214°
2026-04-25 06:17 36.86548 -79.56473 22006 ft 416 kts 214°
2026-04-25 06:18 36.84160 -79.58485 22005 ft 413 kts 214°
2026-04-25 06:18 36.81763 -79.60500 22006 ft 416 kts 214°
2026-04-25 06:18 36.79376 -79.62508 22005 ft 413 kts 214°
2026-04-25 06:18 36.76979 -79.64516 22005 ft 416 kts 214°
2026-04-25 06:19 36.74588 -79.66519 22004 ft 414 kts 214°
2026-04-25 06:19 36.72191 -79.68528 22005 ft 416 kts 214°
2026-04-25 06:19 36.69795 -79.70531 22003 ft 414 kts 214°
2026-04-25 06:19 36.67399 -79.72536 22005 ft 415 kts 214°
2026-04-25 06:20 36.65008 -79.74534 22003 ft 415 kts 214°
2026-04-25 06:20 36.62607 -79.76537 22005 ft 414 kts 214°
2026-04-25 06:20 36.60216 -79.78533 22002 ft 415 kts 214°
2026-04-25 06:20 36.57817 -79.80531 22004 ft 413 kts 214°
2026-04-25 06:21 36.55424 -79.82527 22002 ft 416 kts 214°
2026-04-25 06:21 36.53025 -79.84522 22004 ft 413 kts 214°
2026-04-25 06:21 36.50631 -79.86513 22002 ft 416 kts 214°
2026-04-25 06:21 36.48232 -79.88508 22003 ft 412 kts 214°
2026-04-25 06:22 36.45836 -79.90495 22001 ft 416 kts 214°
2026-04-25 06:22 36.43469 -79.92461 22002 ft 413 kts 214°
2026-04-25 06:22 36.41072 -79.94448 22001 ft 416 kts 213°
2026-04-25 06:22 36.38679 -79.96430 22001 ft 413 kts 214°
2026-04-25 06:23 36.36279 -79.98419 22002 ft 415 kts 213°
2026-04-25 06:23 36.33885 -80.00397 22000 ft 414 kts 213°
2026-04-25 06:23 36.31480 -80.02386 22001 ft 415 kts 213°
2026-04-25 06:23 36.29084 -80.04361 21999 ft 414 kts 213°
2026-04-25 06:24 36.26679 -80.06344 22001 ft 414 kts 213°
2026-04-25 06:24 36.24284 -80.08318 21999 ft 415 kts 213°
2026-04-25 06:24 36.21879 -80.10298 22000 ft 414 kts 213°
2026-04-25 06:24 36.19465 -80.12286 21498 ft 420 kts 213°
2026-04-25 06:25 36.17035 -80.14283 20856 ft 418 kts 213°
2026-04-25 06:25 36.14647 -80.16245 20211 ft 404 kts 213°
2026-04-25 06:25 36.12328 -80.18151 19596 ft 401 kts 213°
2026-04-25 06:25 36.10011 -80.20049 18984 ft 396 kts 213°
2026-04-25 06:26 36.07732 -80.21920 18377 ft 393 kts 213°
2026-04-25 06:26 36.05460 -80.23781 17774 ft 389 kts 213°
2026-04-25 06:26 36.03218 -80.25616 17175 ft 386 kts 213°
2026-04-25 06:26 36.00986 -80.27444 16582 ft 382 kts 213°
2026-04-25 06:27 35.98780 -80.29245 15994 ft 380 kts 213°
2026-04-25 06:27 35.96589 -80.31038 15412 ft 375 kts 213°
2026-04-25 06:27 35.94421 -80.32809 14833 ft 373 kts 213°
2026-04-25 06:27 35.92264 -80.34568 14260 ft 369 kts 213°
2026-04-25 06:28 35.90134 -80.36307 13692 ft 367 kts 213°
2026-04-25 06:28 35.88010 -80.38037 13129 ft 363 kts 213°
2026-04-25 06:28 35.85928 -80.39734 13006 ft 360 kts 213°
2026-04-25 06:28 35.83818 -80.41448 13008 ft 361 kts 213°
2026-04-25 06:29 35.81805 -80.43269 13003 ft 363 kts 218°
2026-04-25 06:29 35.79847 -80.45206 13011 ft 363 kts 218°
2026-04-25 06:29 35.77862 -80.47123 13013 ft 366 kts 218°
2026-04-25 06:29 35.75856 -80.49013 13007 ft 361 kts 216°
2026-04-25 06:30 35.73596 -80.50491 12998 ft 363 kts 201°
2026-04-25 06:30 35.71237 -80.51443 13033 ft 364 kts 197°
2026-04-25 06:30 35.68832 -80.52371 13056 ft 353 kts 198°
2026-04-25 06:30 35.66482 -80.53287 13074 ft 351 kts 197°
2026-04-25 06:31 35.64293 -80.54124 12763 ft 314 kts 197°
2026-04-25 06:31 35.62272 -80.54920 12021 ft 296 kts 200°
2026-04-25 06:31 35.60505 -80.56084 11277 ft 282 kts 216°
2026-04-25 06:31 35.59058 -80.57649 10493 ft 274 kts 229°
2026-04-25 06:32 35.57969 -80.59521 9742 ft 265 kts 241°
2026-04-25 06:32 35.57253 -80.61562 8937 ft 259 kts 253°
2026-04-25 06:32 35.57046 -80.63722 8027 ft 255 kts 277°
2026-04-25 06:32 35.57525 -80.65794 7167 ft 250 kts 285°
2026-04-25 06:33 35.57483 -80.67831 6732 ft 227 kts 253°
2026-04-25 06:33 35.57002 -80.69530 6684 ft 198 kts 252°
2026-04-25 06:33 35.56793 -80.71155 6592 ft 194 kts 268°
2026-04-25 06:33 35.56783 -80.72860 6544 ft 202 kts 269°
2026-04-25 06:34 35.56763 -80.74593 6386 ft 203 kts 269°
2026-04-25 06:34 35.56742 -80.76328 6202 ft 203 kts 268°
2026-04-25 06:34 35.56620 -80.78046 6013 ft 202 kts 263°
2026-04-25 06:34 35.56511 -80.79177 5888 ft 201 kts 264°
2026-04-25 06:35 35.56347 -80.81465 5637 ft 201 kts 265°
2026-04-25 06:35 35.56225 -80.83162 5376 ft 203 kts 265°
2026-04-25 06:35 35.56106 -80.84860 5208 ft 198 kts 265°
2026-04-25 06:35 35.55983 -80.86554 5019 ft 199 kts 265°
2026-04-25 06:36 35.55864 -80.88240 4838 ft 198 kts 265°
2026-04-25 06:36 35.55783 -80.89351 4713 ft 197 kts 265°
2026-04-25 06:36 35.55663 -80.91026 4523 ft 197 kts 265°
2026-04-25 06:36 35.55543 -80.92694 4334 ft 196 kts 265°
2026-04-25 06:37 35.55424 -80.94352 4145 ft 195 kts 265°
2026-04-25 06:37 35.55281 -80.96016 3943 ft 195 kts 259°
2026-04-25 06:37 35.54715 -80.97509 3681 ft 194 kts 233°
2026-04-25 06:37 35.53742 -80.98636 3462 ft 193 kts 211°
2026-04-25 06:38 35.52492 -80.99213 3256 ft 192 kts 189°
2026-04-25 06:38 35.51166 -80.99205 3084 ft 189 kts 174°
2026-04-25 06:38 35.49872 -80.99097 3085 ft 186 kts 178°
2026-04-25 06:38 35.48457 -80.98996 3149 ft 214 kts 176°
2026-04-25 06:39 35.46983 -80.98858 3097 ft 211 kts 175°
2026-04-25 06:39 35.45528 -80.98729 3092 ft 209 kts 176°
2026-04-25 06:39 35.44080 -80.98601 3091 ft 208 kts 176°
2026-04-25 06:39 35.42635 -80.98478 3090 ft 208 kts 176°
2026-04-25 06:40 35.41205 -80.98351 3090 ft 209 kts 176°
2026-04-25 06:40 35.39755 -80.98229 3090 ft 209 kts 176°
2026-04-25 06:40 35.38309 -80.98102 3093 ft 208 kts 176°
2026-04-25 06:40 35.36870 -80.97980 3091 ft 203 kts 176°
2026-04-25 06:41 35.35533 -80.97862 3009 ft 181 kts 176°
2026-04-25 06:41 35.34377 -80.97764 2995 ft 147 kts 176°
2026-04-25 06:41 35.33403 -80.97674 2945 ft 150 kts 175°
2026-04-25 06:41 35.32385 -80.97580 2688 ft 138 kts 176°
2026-04-25 06:42 35.31471 -80.97507 2487 ft 128 kts 175°
2026-04-25 06:42 35.30592 -80.97429 2335 ft 127 kts 177°
2026-04-25 06:42 35.29709 -80.97355 2182 ft 128 kts 174°
2026-04-25 06:42 35.28822 -80.97279 2008 ft 127 kts 178°
2026-04-25 06:43 35.27943 -80.97203 1839 ft 126 kts 174°
2026-04-25 06:43 35.27067 -80.97130 1674 ft 127 kts 178°
2026-04-25 06:43 35.26188 -80.97051 1482 ft 124 kts 174°
2026-04-25 06:43 35.25332 -80.96967 1268 ft 124 kts 177°
2026-04-25 06:44 35.24474 -80.96914 1117 ft 125 kts 175°
2026-04-25 06:44 35.23600 -80.96831 994 ft 127 kts 175°
2026-04-25 06:44 35.22710 -80.96755 810 ft 128 kts 176°
2026-04-25 06:44 35.21866 -80.96685 740 ft 109 kts 176°
2026-04-25 06:45 35.21227 -80.96632 734 ft 77 kts 176°
2026-04-25 06:45 35.20886 -80.96581 735 ft 37 kts 161°
2026-04-25 06:45 35.20724 -80.96467 730 ft 13 kts 132°
2026-04-25 06:45 35.20721 -80.96362 727 ft 13 kts 81°
2026-04-25 06:46 35.20733 -80.96247 726 ft 15 kts 87°
2026-04-25 06:46 35.20744 -80.96122 726 ft 14 kts 70°
2026-04-25 06:46 35.20804 -80.96041 726 ft 7 kts 37°
2026-04-25 06:46 35.20805 -80.96040 726 ft 1 kts 37°
2026-04-25 06:47 35.20857 -80.95993 726 ft 17 kts 36°
2026-04-25 06:47 35.20952 -80.95907 726 ft 17 kts 36°
2026-04-25 06:47 35.21040 -80.95829 726 ft 14 kts 36°
2026-04-25 06:47 35.21102 -80.95753 726 ft 12 kts 62°
2026-04-25 06:48 35.21122 -80.95653 726 ft 11 kts 85°
2026-04-25 06:48 35.21128 -80.95547 726 ft 13 kts 86°
2026-04-25 06:48 35.21134 -80.95439 727 ft 14 kts 86°
2026-04-25 06:48 35.21142 -80.95294 728 ft 20 kts 86°
2026-04-25 06:49 35.21151 -80.95128 729 ft 19 kts 85°
2026-04-25 06:49 35.21165 -80.94963 726 ft 20 kts 75°
2026-04-25 06:49 35.21246 -80.94833 726 ft 19 kts 48°
2026-04-25 06:49 35.21308 -80.94696 726 ft 18 kts 72°
2026-04-25 06:50 35.21347 -80.94553 725 ft 17 kts 53°
2026-04-25 06:50 35.21434 -80.94452 726 ft 17 kts 49°
2026-04-25 06:50 35.21509 -80.94347 726 ft 16 kts 49°
2026-04-25 06:50 35.21581 -80.94249 726 ft 15 kts 47°
2026-04-25 06:51 35.21653 -80.94156 726 ft 15 kts 46°
2026-04-25 06:51 35.21716 -80.94063 726 ft 14 kts 51°
2026-04-25 06:51 35.21783 -80.93974 726 ft 15 kts 47°
2026-04-25 06:51 35.21853 -80.93878 726 ft 15 kts 47°
2026-04-25 06:52 35.21935 -80.93768 726 ft 20 kts 48°
2026-04-25 06:52 35.22024 -80.93647 728 ft 19 kts 49°
2026-04-25 06:52 35.22104 -80.93534 729 ft 17 kts 51°
2026-04-25 06:52 35.22169 -80.93424 728 ft 13 kts 87°
2026-04-25 06:53 35.22158 -80.93396 728 ft 0 kts 136°
2026-04-25 06:53 35.22157 -80.93396 728 ft 1 kts 144°
2026-04-25 06:53 35.22134 -80.93389 729 ft 5 kts 172°
2026-04-25 06:53 35.22059 -80.93386 731 ft 17 kts 184°
2026-04-25 06:54 35.21929 -80.93418 729 ft 20 kts 193°
2026-04-25 06:54 35.21791 -80.93426 727 ft 20 kts 173°
2026-04-25 06:54 35.21656 -80.93414 727 ft 19 kts 176°
2026-04-25 06:54 35.21533 -80.93403 727 ft 17 kts 175°
2026-04-25 06:55 35.21415 -80.93393 726 ft 17 kts 176°
2026-04-25 06:55 35.21301 -80.93383 726 ft 16 kts 176°
2026-04-25 06:55 35.21195 -80.93374 726 ft 13 kts 176°
2026-04-25 06:55 35.21132 -80.93365 726 ft 6 kts 156°
2026-04-25 06:56 35.21116 -80.93316 727 ft 7 kts 90°
2026-04-25 06:56 35.21121 -80.93258 728 ft 10 kts 83°
2026-04-25 06:56 35.21108 -80.93198 728 ft 5 kts 159°
2026-04-25 06:56 35.21072 -80.93194 728 ft 5 kts 175°
2026-04-25 06:57 35.21036 -80.93191 728 ft 5 kts 176°
2026-04-25 06:57 35.21002 -80.93188 728 ft 0 kts 176°